Location: Borz?cin
(51.1714°N, 19.6030°E)
Time: 17:15:35
(UTC+00:00)

USA 234 - Pass Details

Date: 19 May 2025
Orbit: 1097 x 1111 km, 123.0° (Epoch: 19 June)

Event Time Altitude Azimuth Distance (km) Brightness Sun altitude
Rises 22:28:42 0° 72° (ENE) 3,918 6.4 -18.8°
Reaches altitude 10° 22:31:13 10° 68° (ENE) 2,962 5.8 -18.8°
Maximum altitude 22:37:33 56° 353° (N) 1,300 4.0 -18.8°
Drops below altitude 10° 22:43:55 10° 278° (W) 2,969 5.6 -18.8°
Sets 22:46:27 0° 274° (W) 3,928 6.2 -18.8°
